Orlando International, FL

9:18 AM EDT on July 25, 2017 (GMT -0400)
Orlando International

Weather History for KMCO - March, 2012

Change the Weather History Date:

Saturday, March 24, 2012

  Actual Average Record
Temperature  
Mean Temperature 76 °F 68 °F  
Max Temperature 87 °F 79 °F 96 °F (1907)
Min Temperature 64 °F 57 °F 35 °F (1968)
Degree Days  
Heating Degree Days 0 1  
Month to date heating degree days 8 52  
Since 1 July heating degree days 309 551  
Cooling Degree Days 11 4  
Month to date cooling degree days 167 87  
Year to date cooling degree days 308 191  
Growing Degree Days 24 (Base 50)    
Moisture  
Dew Point 63 °F    
Average Humidity 69    
Maximum Humidity 93    
Minimum Humidity 44    
Precipitation  
Precipitation 0.00 in 0.13 in 3.46 in (1930)
Month to date precipitation 0.61 2.87  
Year to date precipitation 3.88 7.60  
Sea Level Pressure  
Sea Level Pressure 29.98 in    
Wind  
Wind Speed 7 mph (SSW)    
Max Wind Speed 16 mph    
Max Gust Speed 22 mph    
Visibility 10 miles    
Events Rain , Thunderstorm    
T = Trace of Precipitation, MM = Missing Value Source: NWS Daily Summary

Daily Weather History Graph

Daily Weather History Graph

Search for Another Location

Airport or City:

Trip Planner

Search our weather history database for the weather conditions in past years. The results will help you decide how hot, cold, wet, or windy it might be!

Date:

Astronomy

Mar. 24, 2012 Rise Set
Actual Time 7:23 AM EDT 7:39 PM EDT
Civil Twilight 7:00 AM EDT 8:02 PM EDT
Nautical Twilight 6:32 AM EDT 8:30 PM EDT
Astronomical Twilight 6:05 AM EDT 8:58 PM EDT
Moon 8:15 AM EDT (3/24) 9:40 PM EDT (3/24)
Length of Visible Light 13h 02m
Length of Day
12h 15m
Waxing Crescent, 4% of the Moon is Illuminated
Mar 24
Waxing Crescent
Mar 30
First Quarter
Apr 6
Full
Apr 13
Last Quarter
Apr 21
New

Hourly Weather History & Observations

Time (EDT) Temp. Heat Index Dew Point Humidity Pressure Visibility Wind Dir Wind Speed Gust Speed Precip Events Conditions
12:53 AM 69.1 °F - 62.1 °F 78% 30.06 in 10.0 mi South 3.5 mph - N/A   Scattered Clouds
1:53 AM 66.9 °F - 63.0 °F 87% 30.05 in 10.0 mi SSE 8.1 mph - N/A   Mostly Cloudy
2:53 AM 66.9 °F - 63.0 °F 87% 30.03 in 10.0 mi SSE 8.1 mph - N/A   Clear
3:53 AM 66.9 °F - 63.0 °F 87% 30.02 in 10.0 mi SSE 3.5 mph - N/A   Clear
4:53 AM 64.9 °F - 62.1 °F 90% 30.01 in 10.0 mi South 3.5 mph - N/A   Partly Cloudy
5:53 AM 64.9 °F - 63.0 °F 93% 30.01 in 10.0 mi SSE 3.5 mph - N/A   Partly Cloudy
6:53 AM 64.9 °F - 62.1 °F 90% 30.01 in 10.0 mi SSE 3.5 mph - N/A   Scattered Clouds
7:53 AM 64.9 °F - 62.1 °F 90% 30.03 in 10.0 mi Calm Calm - N/A   Mostly Cloudy
8:53 AM 69.1 °F - 66.0 °F 90% 30.03 in 10.0 mi South 3.5 mph - N/A   Scattered Clouds
9:53 AM 73.0 °F - 64.0 °F 73% 30.04 in 10.0 mi SSW 6.9 mph - N/A   Mostly Cloudy
10:53 AM 75.0 °F - 64.0 °F 69% 30.05 in 10.0 mi SW 11.5 mph - N/A   Mostly Cloudy
11:53 AM 80.1 °F 81.7 °F 64.0 °F 58% 30.02 in 10.0 mi South 11.5 mph 16.1 mph N/A   Scattered Clouds
12:53 PM 82.9 °F 84.4 °F 64.0 °F 53% 29.99 in 10.0 mi South 10.4 mph - N/A   Mostly Cloudy
1:53 PM 82.0 °F 83.0 °F 62.1 °F 51% 29.98 in 10.0 mi SW 10.4 mph 20.7 mph N/A   Scattered Clouds
2:53 PM 84.0 °F 84.4 °F 61.0 °F 46% 29.94 in 10.0 mi South 10.4 mph - N/A   Scattered Clouds
3:53 PM 84.0 °F 84.0 °F 60.1 °F 44% 29.91 in 10.0 mi South 12.7 mph 21.9 mph N/A   Mostly Cloudy
4:53 PM 84.9 °F 85.0 °F 61.0 °F 44% 29.89 in 10.0 mi WSW 11.5 mph - N/A   Mostly Cloudy
5:53 PM 80.1 °F 81.7 °F 64.0 °F 58% 29.90 in 10.0 mi SW 4.6 mph - 0.00 in Rain Light Rain
6:07 PM 77.0 °F - 64.4 °F 65% 29.91 in 10.0 mi South 15.0 mph 18.4 mph 0.01 in Rain , Thunderstorm Light Thunderstorms and Rain
6:40 PM 75.2 °F - 62.6 °F 65% 29.91 in 10.0 mi South 9.2 mph - N/A   Overcast
6:53 PM 75.9 °F - 63.0 °F 64% 29.91 in 10.0 mi SSW 13.8 mph 20.7 mph 0.01 in   Overcast
7:53 PM 77.0 °F - 61.0 °F 58% 29.93 in 10.0 mi West 13.8 mph - N/A   Overcast
8:53 PM 75.9 °F - 59.0 °F 56% 29.94 in 10.0 mi West 11.5 mph - N/A   Overcast
9:53 PM 73.9 °F - 60.1 °F 62% 29.95 in 10.0 mi West 6.9 mph - N/A   Mostly Cloudy
10:53 PM 73.0 °F - 63.0 °F 71% 29.95 in 10.0 mi SW 6.9 mph - N/A   Mostly Cloudy
11:53 PM 72.0 °F - 63.0 °F 73% 29.94 in 10.0 mi SW 8.1 mph - 0.00 in   Overcast